User: anonymous
Location: Columbia
(38.9520°N, 92.3340°W)
Time: 00:32:12
(UTC-05:00)
Language:

Cosmos 158 Rocket - Orbit

View from above orbital plane
View from above orbital plane
View from above satellite
View from above satellite

Ground track
Ground track

The orbit data is extracted from the following two-line orbital elements,

1 02802U 67045B   14106.60622120  .00000267  00000-0  85324-4 0  4362
2 02802 074.0118 160.9539 0065937 134.2725 226.3869 14.43157752461952
Epoch (UTC): 16 April 2014 14:32:57
Eccentricity: 0.0065937
inclination: 74.0118°
perigee height: 701 km
apogee height: 795 km
right ascension of ascending node: 160.9539°
argument of perigee: 134.2725°
revolutions per day: 14.43157752
mean anomaly at epoch: 226.3869°
orbit number at epoch: 46195

The dashed part of the orbit path shows where the satellite is in the earth's shadow,  

DLR